[[{"header":{"parameterUnit":"m.s-1","parameterCategory":1,"la1":30.2991,"la2":30.254,"lo1":-89.0895,"lo2":-89.0444,"dy":0.0017,"dx":0.0017,"nx":28,"ny":28,"refTime":"2024-03-11T09:00:00:Z","depth":0,"parameterNumber":2,"parameterNumberName":"U-component_of_WINDS"},"data":[0,0,0,0,0,0,0,0,0,0,0,0,0,0,0,0,0,0,0,0,0,0,0,0,0,0,0,0,0,0,0,0,0,0,0,0,0,0,0,0,0,0,0,0,0,0,0,0,0,0,0,0,0,0,0,0,0,0,-1.7409,-1.741,0,-1.7431,-1.7431,-1.7432,-1.74,-1.7398,-1.7397,-1.7396,-1.742,-1.7422,-1.7423,0,0,0,0,0,0,0,0,0,0,0,0,0,-1.7341,-1.7343,-1.7409,-1.741,-1.741,-1.7431,-1.7431,-1.7432,-1.74,-1.7398,-1.7397,-1.7396,-1.742,-1.7422,-1.7424,0,0,0,0,0,0,0,0,0,0,0,0,0,-1.7368,-1.7343,-1.7409,-1.7397,-1.7396,-1.7431,-1.7431,-1.7432,-1.74,-1.7398,-1.7397,-1.7395,-1.7419,-1.7421,-1.7424,-1.7473,0,0,-1.7432,-1.7433,0,0,0,0,0,0,0,0,-1.7366,-1.737,-1.7398,-1.7398,-1.7397,-1.7411,-1.7416,-1.7446,-1.7401,-1.7398,-1.7396,-1.7394,-1.7419,-1.7421,-1.7429,-1.7474,-1.7475,-1.7432,-1.7433,-1.7434,-1.7435,0,0,0,0,0,0,0,-1.7365,-1.7369,-1.7418,-1.7399,-1.7398,-1.739,-1.7392,-1.7422,-1.7418,-1.7399,-1.7396,-1.7399,-1.7418,-1.7426,-1.7429,-1.7476,-1.7432,-1.7434,-1.7436,-1.7437,-1.7563,-1.7564,0,0,0,0,0,0,-1.7364,-1.7368,-1.7417,-1.7419,-1.7377,-1.7393,-1.7395,-1.7408,-1.7417,-1.7417,-1.7401,-1.7398,-1.7423,-1.7426,-1.743,-1.7488,-1.7434,-1.7437,-1.7438,-1.7561,-1.7563,-1.7565,0,0,0,0,0,0,-1.7363,-1.7369,-1.7416,-1.7393,-1.7398,-1.7396,-1.7411,-1.7409,-1.7418,-1.7419,-1.7418,-1.741,-1.7422,-1.7426,-1.7463,-1.7488,-1.7438,-1.744,-1.7559,-1.7561,-1.7564,-1.7605,0,0,0,0,0,0,-1.7361,-1.7369,-1.7387,-1.7393,-1.74,-1.7449,-1.7412,-1.7411,-1.7422,-1.7419,-1.7428,-1.7428,-1.7421,-1.7459,-1.7465,-1.7491,-1.7442,-1.7556,-1.756,-1.7563,-1.7601,-1.7609,-1.7615,0,0,0,0,0,-1.7359,-1.7398,-1.7388,-1.7394,-1.7423,-1.745,-1.7454,-1.7445,-1.7424,-1.7443,-1.7444,-1.7427,-1.7485,-1.7463,-1.747,-1.7497,-1.7555,-1.7559,-1.7563,-1.7598,-1.7607,-1.7615,0,0,0,0,0,0,-1.7396,-1.7399,-1.7388,-1.743,-1.744,-1.7445,-1.7468,-1.7455,-1.7471,-1.7467,-1.7455,-1.7458,-1.7496,-1.75,-1.7476,-1.7545,-1.7516,-1.7522,-1.7541,-1.755,-1.7556,-1.7555,-1.7444,0,0,0,0,0,-1.7409,-1.743,-1.7432,-1.747,-1.7475,-1.7471,-1.7482,-1.7475,-1.7484,-1.7489,-1.7492,-1.7502,-1.7523,-1.7536,-1.7555,-1.7602,-1.7603,-1.7624,-1.763,-1.7636,-1.7641,-1.7666,-1.7675,-1.7579,-1.7578,-1.7578,0,0,-1.7436,-1.744,-1.7455,-1.7477,-1.7484,-1.7507,-1.7475,-1.75,-1.7517,-1.7493,-1.7527,-1.753,-1.7541,-1.7582,-1.7601,-1.7586,-1.7668,-1.7641,-1.7646,-1.7648,-1.7671,-1.768,-1.7688,-1.7581,-1.7581,-1.758,0,0,-1.7498,-1.7503,-1.7535,-1.7542,-1.7552,-1.7549,-1.7557,-1.7563,-1.7564,-1.7598,-1.7579,-1.76,-1.7635,-1.7643,-1.7652,-1.7717,-1.7702,-1.7723,-1.7759,-1.7784,-1.7791,-1.7798,-1.782,-1.7829,-1.7728,-1.7728,-1.7728,0,-1.753,-1.7564,-1.7553,-1.758,-1.759,-1.7568,-1.76,-1.7608,-1.7624,-1.7632,-1.7615,-1.7659,-1.7665,-1.7708,-1.7723,-1.7731,-1.774,-1.7722,-1.7791,-1.7797,-1.7803,-1.7825,-1.7834,-1.7731,-1.773,-1.773,-1.773,0,-1.7604,-1.7627,-1.7652,-1.7667,-1.768,-1.7709,-1.7703,-1.7718,-1.7709,-1.7707,-1.7742,-1.7748,-1.7768,-1.7777,-1.7769,-1.7819,-1.781,-1.7793,-1.7764,-1.7815,-1.7835,-1.7843,-1.7734,-1.7733,-1.7733,-1.7732,0,0,-1.7689,-1.7698,-1.7707,-1.7713,-1.7723,-1.7741,-1.7769,-1.7788,-1.78,-1.7812,-1.7836,-1.7866,-1.785,-1.786,-1.7852,-1.7873,-1.7923,-1.7853,-1.7853,-1.7866,-1.7979,-1.7992,-1.8001,-1.7914,-1.7915,-1.7917,-1.7978,0,-1.775,-1.7799,-1.779,-1.7837,-1.7858,-1.7838,-1.7862,-1.7871,-1.787,-1.7889,-1.7888,-1.791,-1.7887,-1.7893,-1.7913,-1.7913,-1.7946,-1.7909,-1.7936,-1.7937,-1.7933,-1.8012,-1.8026,-1.8083,-1.7985,-1.7987,-1.7988,0,-1.7828,-1.7842,-1.7891,-1.7897,-1.7906,-1.7928,-1.7944,-1.7962,-1.7971,-1.7969,-1.798,-1.7969,-1.7997,-1.7968,-1.8007,-1.7981,-1.7992,-1.7994,-1.7996,-1.7998,-1.7965,-1.8016,-1.8101,-1.811,-1.8,-1.7999,-1.7998,0,-1.7885,-1.7917,-1.795,-1.7956,-1.7964,-1.798,-1.7984,-1.7991,-1.8003,-1.8017,-1.8024,-1.8042,-1.8051,-1.8065,-1.8059,-1.8038,-1.8099,-1.8069,-1.8098,-1.8098,-1.8112,-1.8111,-1.82,-1.8119,-1.8119,-1.8119,-1.8118,0,-1.7954,-1.7985,-1.7976,-1.7996,-1.803,-1.8019,-1.8054,-1.8055,-1.8062,-1.8083,-1.8066,-1.8086,-1.8076,-1.8095,-1.809,-1.8123,-1.8128,-1.8127,-1.8125,-1.8128,-1.8128,-1.8135,-1.8131,-1.8121,-1.812,-1.812,-1.812,0,-1.8024,-1.8019,-1.8054,-1.8058,-1.8059,-1.8084,-1.8088,-1.8107,-1.8105,-1.8131,-1.8137,-1.8134,-1.8156,-1.815,-1.8174,-1.8171,-1.8212,-1.8205,-1.8209,-1.8207,-1.8236,-1.8233,-1.8332,-1.8344,-1.8256,-1.8257,-1.8258,0,-1.8068,-1.8091,-1.8098,-1.811,-1.8115,-1.8135,-1.8147,-1.8137,-1.815,-1.8162,-1.818,-1.82,-1.8215,-1.8251,-1.8251,-1.8269,-1.8262,-1.8296,-1.8265,-1.8267,-1.8263,-1.8261,-1.8263,-1.8302,-1.8303,-1.8304,-1.8304,0,-1.8147,-1.8143,-1.816,-1.8176,-1.819,-1.8203,-1.8213,-1.8225,-1.8216,-1.8231,-1.8252,-1.8264,-1.8288,-1.8308,-1.8325,-1.8329,-1.8315,-1.8314,-1.8322,-1.8325,-1.8326,-1.8325,-1.8225,-1.8312,-1.8311,-1.831,-1.831,-1.831,-1.8205,-1.8225,-1.8232,-1.8251,-1.8258,-1.8269,-1.8287,-1.8287,-1.8304,-1.8323,-1.8316,-1.8341,-1.8349,-1.837,-1.8376,-1.8395,-1.8383,-1.8394,-1.8397,-1.8399,-1.8403,-1.8323,-1.8398,-1.8398,-1.8398,-1.8398,-1.8398,0,-1.8283,-1.8287,-1.8304,-1.832,-1.8335,-1.832,-1.8331,-1.8345,-1.8367,-1.8376,-1.8391,-1.8416,-1.8435,-1.8436,-1.8454,-1.847,-1.8464,-1.8475,-1.8473,-1.8474,-1.8413,-1.8405,-1.8479,-1.8479,-1.8479,-1.8479,-1.8479,-1.8479,-1.8325,-1.8357,-1.8354,-1.839,-1.8393,-1.8417,-1.8424,-1.8434,-1.8441,-1.8469,-1.8484,-1.8485,-1.8491,-1.8509,-1.8526,-1.8526,-1.8533,-1.8547,-1.8544,-1.8487,-1.8479,-1.8471,-1.8463,-1.8548,-1.8549,-1.8604,-1.8604,-1.8605]},{"header":{"parameterUnit":"m.s-1","parameterCategory":1,"la1":30.2991,"la2":30.254,"lo1":-89.0895,"lo2":-89.0444,"dy":0.0017,"dx":0.0017,"nx":28,"ny":28,"refTime":"2024-03-11T09:00:00:Z","depth":0,"parameterNumber":3,"parameterNumberName":"V-component_of_WINDS"},"data":[0,0,0,0,0,0,0,0,0,0,0,0,0,0,0,0,0,0,0,0,0,0,0,0,0,0,0,0,0,0,0,0,0,0,0,0,0,0,0,0,0,0,0,0,0,0,0,0,0,0,0,0,0,0,0,0,0,0,-1.0736,-1.0736,0,-1.0753,-1.0753,-1.0753,-1.0731,-1.073,-1.0729,-1.0729,-1.0744,-1.0745,-1.0746,0,0,0,0,0,0,0,0,0,0,0,0,0,-1.0683,-1.0684,-1.0736,-1.0736,-1.0736,-1.0753,-1.0753,-1.0753,-1.0731,-1.073,-1.0729,-1.0728,-1.0744,-1.0745,-1.0747,0,0,0,0,0,0,0,0,0,0,0,0,0,-1.0704,-1.0685,-1.0736,-1.0727,-1.0727,-1.0753,-1.0753,-1.0753,-1.0731,-1.073,-1.0729,-1.0728,-1.0743,-1.0745,-1.0747,-1.0781,0,0,-1.0752,-1.0753,0,0,0,0,0,0,0,0,-1.0702,-1.0706,-1.0728,-1.0728,-1.0727,-1.0738,-1.074,-1.0762,-1.0732,-1.073,-1.0729,-1.0727,-1.0743,-1.0745,-1.0751,-1.0782,-1.0783,-1.0752,-1.0753,-1.0754,-1.0755,0,0,0,0,0,0,0,-1.0701,-1.0705,-1.0742,-1.0729,-1.0728,-1.0722,-1.0724,-1.0744,-1.0743,-1.073,-1.0728,-1.073,-1.0743,-1.0749,-1.0751,-1.0783,-1.0752,-1.0754,-1.0755,-1.0755,-1.0843,-1.0844,0,0,0,0,0,0,-1.0701,-1.0704,-1.0742,-1.0743,-1.0712,-1.0724,-1.0726,-1.0736,-1.0742,-1.0742,-1.0731,-1.0729,-1.0747,-1.0749,-1.0751,-1.0792,-1.0754,-1.0756,-1.0757,-1.0842,-1.0843,-1.0845,0,0,0,0,0,0,-1.07,-1.0705,-1.0741,-1.0723,-1.0727,-1.0726,-1.0738,-1.0737,-1.0743,-1.0744,-1.0743,-1.0738,-1.0746,-1.0749,-1.0774,-1.0792,-1.0756,-1.0758,-1.084,-1.0842,-1.0844,-1.0873,0,0,0,0,0,0,-1.0698,-1.0704,-1.0718,-1.0723,-1.0728,-1.0764,-1.0739,-1.0738,-1.0747,-1.0744,-1.075,-1.075,-1.0745,-1.0772,-1.0776,-1.0794,-1.0759,-1.0839,-1.0841,-1.0843,-1.087,-1.0876,-1.088,0,0,0,0,0,-1.0697,-1.0725,-1.0718,-1.0723,-1.0745,-1.0765,-1.0768,-1.0762,-1.0748,-1.0761,-1.0762,-1.075,-1.0789,-1.0774,-1.0779,-1.0797,-1.0837,-1.084,-1.0843,-1.0868,-1.0874,-1.088,0,0,0,0,0,0,-1.0721,-1.0725,-1.0718,-1.0749,-1.0757,-1.0762,-1.0778,-1.0769,-1.0781,-1.0778,-1.077,-1.0771,-1.0798,-1.08,-1.0783,-1.0831,-1.0811,-1.0815,-1.0828,-1.0834,-1.0839,-1.0838,-1.0761,0,0,0,0,0,-1.073,-1.0746,-1.0749,-1.0776,-1.0781,-1.0779,-1.0787,-1.0782,-1.079,-1.0793,-1.0795,-1.0802,-1.0816,-1.0826,-1.0839,-1.0871,-1.0871,-1.0886,-1.0891,-1.0895,-1.0898,-1.0915,-1.0921,-1.0854,-1.0854,-1.0854,0,0,-1.0748,-1.0753,-1.0764,-1.0781,-1.0787,-1.0803,-1.0782,-1.08,-1.0812,-1.0795,-1.0819,-1.0821,-1.0829,-1.0858,-1.087,-1.086,-1.0917,-1.0898,-1.0902,-1.0903,-1.0918,-1.0925,-1.093,-1.0856,-1.0856,-1.0855,0,0,-1.079,-1.0796,-1.0819,-1.0825,-1.0834,-1.0832,-1.0838,-1.0844,-1.0844,-1.0869,-1.0856,-1.087,-1.0895,-1.09,-1.0907,-1.0952,-1.0941,-1.0956,-1.0981,-1.0997,-1.1003,-1.1007,-1.1023,-1.1028,-1.0959,-1.0959,-1.0959,0,-1.0812,-1.0837,-1.0832,-1.0851,-1.0859,-1.0845,-1.0868,-1.0874,-1.0886,-1.0892,-1.0881,-1.0911,-1.0915,-1.0945,-1.0956,-1.0962,-1.0967,-1.0955,-1.1003,-1.1007,-1.1011,-1.1026,-1.1032,-1.0961,-1.0961,-1.0961,-1.0961,0,-1.0863,-1.0881,-1.0899,-1.0911,-1.0921,-1.0942,-1.094,-1.095,-1.0945,-1.0944,-1.0969,-1.0973,-1.0987,-1.0994,-1.0988,-1.1023,-1.1016,-1.1004,-1.0983,-1.102,-1.1033,-1.1039,-1.0964,-1.0963,-1.0963,-1.0962,0,0,-1.092,-1.093,-1.0937,-1.0942,-1.0951,-1.0964,-1.0985,-1.0999,-1.1008,-1.1017,-1.1033,-1.1055,-1.1043,-1.105,-1.1045,-1.106,-1.1095,-1.1046,-1.1046,-1.1054,-1.1132,-1.1141,-1.1147,-1.1088,-1.1089,-1.109,-1.1131,0,-1.0962,-1.0998,-1.0993,-1.1028,-1.1044,-1.1031,-1.1049,-1.1056,-1.1056,-1.1069,-1.1069,-1.1084,-1.1069,-1.1073,-1.1087,-1.1087,-1.111,-1.1085,-1.1102,-1.1103,-1.11,-1.1155,-1.1164,-1.1203,-1.1137,-1.1138,-1.1138,0,-1.1015,-1.1027,-1.1063,-1.1069,-1.1076,-1.1092,-1.1104,-1.1117,-1.1125,-1.1124,-1.1132,-1.1125,-1.1144,-1.1125,-1.1151,-1.1134,-1.1141,-1.1143,-1.1144,-1.1145,-1.1122,-1.1156,-1.1215,-1.122,-1.1147,-1.1146,-1.1145,0,-1.1052,-1.1077,-1.1101,-1.1107,-1.1115,-1.1126,-1.113,-1.1137,-1.1146,-1.1156,-1.1162,-1.1174,-1.1181,-1.1191,-1.1187,-1.1173,-1.1214,-1.1194,-1.1214,-1.1214,-1.1222,-1.1222,-1.1282,-1.1228,-1.1228,-1.1228,-1.1228,0,-1.1099,-1.1121,-1.1118,-1.1133,-1.1158,-1.1152,-1.1177,-1.1179,-1.1185,-1.12,-1.119,-1.1204,-1.1198,-1.1211,-1.1208,-1.1231,-1.1234,-1.1233,-1.1232,-1.1234,-1.1234,-1.1238,-1.1235,-1.123,-1.1229,-1.1229,-1.1229,0,-1.1143,-1.1143,-1.1169,-1.1175,-1.1177,-1.1194,-1.1199,-1.1213,-1.1213,-1.1232,-1.1236,-1.1236,-1.1251,-1.1248,-1.1265,-1.1263,-1.1291,-1.1287,-1.1289,-1.1287,-1.1307,-1.1305,-1.1371,-1.138,-1.1321,-1.1322,-1.1322,0,-1.1173,-1.119,-1.1198,-1.1207,-1.1212,-1.1228,-1.1237,-1.1232,-1.1242,-1.1252,-1.1265,-1.1279,-1.1291,-1.1316,-1.1317,-1.133,-1.1325,-1.1348,-1.1327,-1.1328,-1.1324,-1.1323,-1.1324,-1.1351,-1.1352,-1.1353,-1.1353,0,-1.1224,-1.1223,-1.1237,-1.1251,-1.1262,-1.1272,-1.1281,-1.1289,-1.1286,-1.1297,-1.1313,-1.1322,-1.134,-1.1354,-1.1366,-1.1369,-1.136,-1.136,-1.1365,-1.1366,-1.1366,-1.1366,-1.1299,-1.1358,-1.1357,-1.1357,-1.1357,-1.1357,-1.1262,-1.1276,-1.1284,-1.13,-1.1306,-1.1315,-1.1329,-1.1331,-1.1344,-1.1358,-1.1355,-1.1373,-1.138,-1.1396,-1.14,-1.1414,-1.1405,-1.1413,-1.1415,-1.1416,-1.1418,-1.1365,-1.1416,-1.1416,-1.1416,-1.1416,-1.1416,0,-1.1312,-1.1317,-1.1331,-1.1345,-1.1357,-1.1349,-1.1359,-1.1369,-1.1385,-1.1393,-1.1405,-1.1423,-1.1437,-1.144,-1.1453,-1.1463,-1.1459,-1.1467,-1.1465,-1.1466,-1.1426,-1.142,-1.147,-1.147,-1.147,-1.147,-1.147,-1.147,-1.134,-1.1363,-1.1364,-1.139,-1.1395,-1.1413,-1.1419,-1.1427,-1.1434,-1.1455,-1.1467,-1.1468,-1.1474,-1.1488,-1.15,-1.15,-1.1505,-1.1514,-1.1513,-1.1474,-1.1469,-1.1464,-1.1458,-1.1515,-1.1515,-1.1552,-1.1552,-1.1552]}]]